SCP
0 0 0 0 0 0 0 0 0 0 0 0 0 0 0 0 0 0 0 0 0 0 0 0 0 0 0 0 0 0 0 0 0 0 0 0 0 0 0 0 0 0 0
0 0 0 0 0 0 0 0 0 0 0 0 0 0 0 0 0 0 0 0 0 0 0 0 0 0 0 0 0 0 0 0 0 0 0 0 0 0 0 0 0 0 0
0 0 0 0 0 0 0 0 0 0 0 0 0 0 0 0 0 0 0 0 0 0 0 0 0 0 0 0 0 0 0 0 0 0 0 0 0 0 0 0 0 0 0
0 0 0 0 0 0 0 0 0 0 0 0 0 0 0 0 0 0 0 0 0 0 0 0 0 0 0 0 0 0 0 0 0 0 0 0 0 0 0 0 0 0 0
0 0 0 0 0 0 0 0 0 0 0 0 0 0 0 0 0 0 0 0 0 0 0 0 0 0 0 0 0 0 0 0 0 0 0 0 0 0 0 0 0 0 0
0 0 0 0 0 0 0 0 0 0 0 0 0 0 0 0 0 0 0 0 0 0 0 0 0 0 0 0 0 0 0 0 0 0 0 0 0 0 0 0 0 0 0
0 0 0 0 0 0 0 0 0 0 0 0 0 0 0 0 0 0 0 0 0 0 0 0 0 0 0 0 0 0 0 0 0 0 0 0 0 0 0 0 0 0 0
0 0 0 0 0 0 0 0 0 0 0 0 0 0 0 0 0 0 0 0 0 0 0 0 0 0 0 0 0 0 0 0 0 0 0 0 0 0 0 0 0 0 0
0 0 0 0 0 0 0 0 0 0 0 0 0 0 0 0 0 0 0 0 0 0 0 0 0 0 0 0 0 0 0 0 0 0 0 0 0 0 0 0 0 0 0
0 0 0 0 0 0 0 0 0 0 0 0 0 0 0 0 0 0 0 0 0 0 0 0 0 0 0 0 0 0 0 0 0 0 0 0 0 0 0 0 0 0 0
0 0 0 0 0 0 0 0 0 0 0 0 0 0 0 0 0 0 0 0 0 0 0 0 0 0 0 0 0 0 0 0 0 0 0 0 0 0 0 0 0 0 0
0 0 0 0 0 0 0 0 0 0 0 0 0 0 0 0 0 0 0 0 0 0 0 0 0 0 0 0 0 0 0 0 0 0 0 0 0 0 0 0 0 0 0
0 0 0 0 0 0 0 0 0 0 0 0 0 0 0 0 0 0 0 0 0 0 0 0 0 0 0 0 0 0 0 0 0 0 0 0 0 0 0 0 0 0 0
0 0 0 0 0 0 0 0 0 0 0 0 0 0 0 0 0 0 0 0 0 0 0 0 0 0 0 0 0 0 0 0 0 0 0 0 0 0 0 0 0 0 0
0 0 0 0 0 0 0 0 0 0 0 0 0 0 0 0 0 0 0 0 0 0 0 0 0 0 0 0 0 0 0 0 0 0 0 0 0 0 0 0 0 0 0
0 0 0 0 0 0 -0 -0 0 0 0 0 0 0 0 0 0 0 0 0 0 0 0 0 0 0 0 0 0 0 0 0 0 0 0 0 0 0 0 0 0 0 0
0 0 0 0 0 0 -0 -0 0 0 0 0 0 0 0 0 0 0 0 0 0 0 0 0 0 0 0 0 0 0 0 0 0 0 0 0 0 0 0 0 0 0 0
-0 -0 -0 0 0 -0 -0 -0 -0 0 0 0 0 0 0 0 0 0 0 0 0 0 0 0 0 0 0 0 0 0 0 0 0 0 0 0 0 0 0 0 0 0 0
-0 -0 -0 -0 -0 -0 -0 -0 -0 0 0 0 0 0 0 0 0 0 0 0 0 0 0 0 0 0 0 0 0 0 0 0 0 0 0 0 0 0 0 0 0 0 0
-0 -0 -0 -0 -0 -0 -0 -0 -0 0 0 0 0 0 0 0 0 0 0 0 0 0 0 0 0 0 0 0 0 0 0 0 0 0 0 0 0 0 0 0 0 0 0
0 0 0 0 0 0 0 -0 -0 0 0 0 0 0 0 0 0 0 0 0 0 0 0 0 0 0 0 0 0 0 0 0 0 0 0 0 0 0 0 0 0 0 0
0 0 0 0 0 0 0 0 0 0 0 0 0 0 0 0 0 0 0 0 0 0 0 0 0 0 0 0 0 0 0 0 0 0 0 0 0 0 0 0 0 0 0
0 0 0 0 0 0 0 0 0 0 0 -0 0 0 0 0 0 0 0 0 0 0 0 0 0 0 0 0 0 0 0 0 0 0 0 0 0 0 0 0 0 0 0
0 0 0 0 0 0 0 0 0 0 0 0 0 0 0 0 0 0 0 0 0 0 0 0 0 0 0 0 0 0 0 0 0 0 0 0 0 0 0 0 0 0 0
0 0 0 0 0 0 0 0 0 0 0 0 0 0 0 0 0 0 0 0 0 0 0 0 0 0 0 0 0 0 0 0 0 0 0 0 0 0 0 0 0 0 0
0 0 0 0 0 0 0 0 0 0 0 0 0 0 0 0 0 0 0 0 0 0 0 0 0 0 0 0 0 0 0 0 0 0 0 0 0 0 0 0 0 0 0
Wind_Speed
21 18 9 8 9 10 13 15 16 16 16 15 14 12 13 11 10 10 12 12 11 11 10 8 8 8 7 7 6 4 3 2 1 3 3 4 4 5 5 4 4 5 5
18 18 5 4 8 12 14 15 16 17 18 15 13 8 8 8 9 7 8 10 11 12 11 11 10 9 7 7 7 6 4 2 1 3 3 2 1 2 2 2 4 4 4
19 19 7 6 8 9 12 14 16 17 16 13 9 4 6 4 3 6 8 11 13 14 13 12 10 10 9 8 8 6 6 5 2 2 4 4 3 1 1 1 2 4 4
10 12 9 8 9 9 8 9 11 13 15 17 17 17 12 11 12 12 12 12 13 14 14 13 12 10 8 7 6 5 4 6 4 2 2 3 4 4 1 1 2 3 3
7 9 10 10 9 4 6 8 10 12 13 15 18 19 14 8 6 7 10 10 10 10 11 12 11 10 9 8 8 7 5 4 5 4 3 2 3 2 2 1 2 3 3
11 11 7 6 8 5 1 6 11 12 13 14 15 17 15 10 11 12 12 11 9 9 12 13 12 11 10 9 9 7 7 5 4 4 4 5 5 4 3 3 2 2 3
8 11 10 9 9 5 2 2 6 9 13 15 15 15 15 14 16 15 14 14 12 12 14 14 12 11 11 10 8 7 6 6 5 5 4 3 3 4 4 3 2 1 3
7 8 9 7 6 4 3 6 7 7 10 13 14 13 12 9 9 11 12 13 12 12 14 14 13 13 13 11 10 7 5 5 6 6 5 3 3 3 3 4 4 2 2
8 8 9 8 7 7 6 5 7 8 10 11 12 13 15 14 12 11 12 12 11 10 14 17 15 14 14 14 13 9 9 8 6 6 5 4 3 3 3 3 3 4 2
10 12 13 12 11 9 7 9 9 8 5 8 11 10 13 13 12 13 15 14 15 15 17 17 16 15 14 13 13 10 10 10 8 7 8 6 4 4 4 3 2 2 2
19 17 16 16 16 15 14 12 9 7 7 7 7 7 8 8 9 10 14 15 14 16 18 19 18 18 17 16 14 12 13 13 11 10 9 8 8 6 5 4 3 2 2
18 16 15 15 15 16 17 17 15 11 10 8 8 10 9 9 10 13 14 15 16 17 18 19 19 19 19 19 18 16 15 15 14 14 12 11 9 8 7 6 5 4 4
18 17 17 16 16 15 14 13 12 12 12 13 11 12 11 12 17 19 17 16 16 17 18 19 21 21 21 21 21 19 17 16 15 14 14 13 13 11 9 8 7 6 5
18 17 17 15 15 14 14 13 13 14 14 12 11 12 13 16 18 18 16 17 18 19 19 21 21 20 20 21 20 19 17 16 14 13 14 14 15 14 12 9 8 7 7
16 16 16 15 16 15 15 15 14 14 15 15 17 16 13 11 13 15 15 15 18 20 21 20 20 20 19 19 21 20 19 18 16 14 13 13 15 18 16 12 10 9 7
14 13 15 14 16 18 17 16 15 15 16 15 16 18 17 12 11 12 12 13 16 17 18 21 21 20 18 27 33 25 19 19 18 16 14 13 15 18 21 20 17 15 11
15 13 14 13 13 15 16 16 15 13 13 13 14 15 18 17 13 9 9 12 15 16 18 19 19 20 20 29 33 30 18 17 17 16 15 12 12 14 14 18 19 18 19
12 12 12 13 13 15 15 14 15 14 12 12 13 15 17 18 16 9 7 7 9 13 16 17 18 18 20 30 32 29 16 16 17 17 17 16 16 16 17 15 13 10 9
9 10 11 12 13 15 15 14 16 17 17 15 15 15 16 18 15 10 7 4 6 9 12 14 15 16 18 28 31 27 14 14 15 15 15 15 15 22 24 15 12 10 8
9 10 10 9 10 13 12 14 15 16 16 16 17 16 13 14 15 11 5 3 5 7 8 8 10 14 15 24 32 29 13 13 12 12 14 18 19 25 27 17 14 12 10
11 12 11 10 11 10 10 14 15 16 16 16 18 18 12 12 12 10 3 2 3 3 4 4 5 9 12 20 33 32 14 12 12 11 12 14 23 26 27 20 12 12 11
14 13 12 14 14 11 10 14 17 16 15 17 18 17 15 12 8 8 5 3 5 5 5 6 4 5 8 15 27 32 23 17 14 12 11 14 25 25 25 19 18 19 12
14 12 11 16 16 12 10 14 16 14 17 19 20 18 17 13 9 9 8 6 6 5 5 6 7 7 7 10 21 30 27 20 12 10 15 21 26 24 20 21 20 12 8
15 13 13 16 19 16 14 15 16 15 16 20 20 18 18 16 12 9 9 9 9 9 10 11 11 10 9 10 11 14 17 17 12 12 15 18 18 14 9 8 9 6 6
17 14 14 17 21 21 19 17 16 16 18 19 19 17 16 16 14 13 12 11 12 13 12 11 10 11 13 15 19 17 14 13 15 14 11 12 10 9 7 5 5 5 5
19 20 20 21 22 22 22 18 16 17 19 19 18 15 14 14 13 12 12 19 20 22 25 22 15 13 17 23 29 29 27 29 29 16 10 11 12 11 10 9 8 7 7
Wind_Direction
275 275 255 216 203 195 193 192 189 184 173 175 174 179 192 186 188 191 188 183 178 174 170 165 163 166 172 176 165 130 116 76 45 85 65 48 59 50 42 47 48 49 41
289 286 279 230 207 203 195 188 188 181 182 184 184 185 179 185 188 183 183 180 175 174 175 174 176 174 171 171 173 156 139 122 72 114 109 72 31 41 38 51 56 41 30
281 298 324 250 236 222 204 195 188 183 181 176 164 118 103 95 134 172 185 185 182 180 179 178 176 177 178 180 181 171 163 144 99 101 138 148 191 269 296 308 31 36 27
296 301 302 270 237 229 206 193 178 178 180 173 174 177 181 185 193 189 190 188 187 181 178 176 175 176 176 174 173 175 178 142 145 119 71 92 137 154 184 302 334 2 14
320 307 294 288 278 239 181 171 163 167 180 185 185 184 192 182 156 162 170 175 181 181 179 176 173 175 175 172 169 176 178 166 158 156 145 95 60 82 136 218 319 345 339
331 319 313 315 324 352 64 149 156 161 172 188 197 197 195 168 157 164 168 168 174 180 184 178 179 178 175 173 175 175 179 180 166 162 164 160 161 175 160 177 234 283 303
324 328 341 0 354 355 50 135 156 166 171 185 199 204 201 186 180 175 176 174 178 188 193 185 181 178 178 174 167 170 181 175 177 175 177 168 157 145 140 135 147 252 299
345 346 343 356 338 316 195 177 189 188 182 188 197 198 201 198 194 182 177 179 186 188 178 182 183 181 175 171 168 168 171 171 177 174 168 157 156 146 146 151 146 161 283
336 341 339 348 349 325 283 227 207 206 195 198 201 203 198 190 189 185 182 183 187 178 171 181 183 182 178 173 169 173 169 168 173 171 163 154 159 148 136 132 144 144 195
340 359 6 3 10 353 341 332 322 305 271 225 215 211 217 209 190 184 196 193 185 175 173 181 185 180 182 178 172 172 165 165 173 169 166 162 152 146 139 144 132 117 141
22 17 16 16 14 10 10 1 339 320 305 290 275 259 245 228 207 201 203 200 192 181 178 182 184 183 182 182 180 177 171 176 175 171 169 167 153 148 147 142 146 150 147
4 3 4 7 9 9 12 10 353 341 327 300 263 244 236 226 219 214 212 202 195 188 184 183 185 188 187 184 184 181 179 180 180 175 170 167 155 151 157 158 162 161 162
359 358 357 1 3 2 4 4 355 357 344 322 292 265 245 228 226 223 215 207 201 196 190 187 189 191 191 188 188 186 180 183 186 179 173 168 161 167 172 166 160 157 162
352 352 353 352 352 351 352 353 350 353 344 330 315 284 257 239 235 233 222 209 201 198 198 194 192 193 193 192 190 185 181 181 182 179 176 172 174 171 167 164 164 159 164
343 346 346 341 340 342 344 345 345 344 339 339 342 332 305 274 253 240 228 210 204 199 197 197 195 192 192 194 191 188 182 178 177 177 178 178 173 170 170 170 168 163 159
330 337 335 335 334 334 336 336 339 340 338 343 343 335 325 309 274 250 232 212 207 203 199 200 195 194 195 196 194 188 181 179 179 175 174 174 172 179 181 181 180 175 166
316 322 320 327 326 324 326 327 327 327 330 333 331 334 330 323 307 274 239 218 209 204 205 206 200 198 198 199 196 193 185 179 179 172 169 167 169 171 175 183 185 188 188
304 311 314 319 316 316 318 318 321 320 322 324 325 331 332 323 310 288 250 234 215 207 205 206 203 201 199 198 194 190 185 180 178 174 176 174 169 174 174 175 182 186 192
295 306 307 306 313 312 314 321 323 324 323 324 324 329 328 316 301 273 257 231 218 218 219 211 203 205 203 196 187 182 186 184 177 170 171 170 167 179 179 169 170 177 187
294 297 292 286 290 296 309 318 318 318 319 324 322 313 305 294 283 266 246 232 221 223 223 220 202 205 202 193 187 181 181 180 173 167 170 171 172 181 183 173 168 173 181
293 294 294 291 290 294 310 306 306 308 316 319 310 300 290 275 272 271 253 213 214 186 179 196 206 203 200 197 193 184 179 178 170 172 167 174 179 184 186 179 173 175 171
294 297 299 297 297 301 303 296 295 304 308 304 299 299 297 282 258 253 245 199 192 186 166 162 179 203 206 210 199 191 184 182 177 178 167 166 177 186 189 185 186 185 159
288 289 286 285 285 286 284 283 293 307 306 304 303 305 302 290 259 239 232 217 200 195 185 181 193 196 189 207 210 201 187 189 180 169 162 164 175 182 188 189 187 170 143
286 289 287 281 283 287 290 291 304 310 305 301 300 300 297 292 271 239 228 223 212 204 203 197 196 187 183 183 198 202 183 178 170 161 154 161 171 169 153 174 169 151 146
293 292 286 286 288 296 297 302 304 304 297 291 289 289 288 282 271 243 225 225 223 212 214 210 194 185 186 190 191 186 173 158 153 150 151 155 151 144 136 136 138 139 140
296 298 296 295 296 299 297 299 298 294 289 286 285 283 281 281 275 261 245 236 236 233 230 224 206 199 196 185 192 198 176 167 160 156 165 164 162 159 153 160 161 163 167